Location: Unspecified
(0.0000°N, 0.0000°E)
Time: 02:16:52
(UTC+00:00)

OBJECT M - Pass Details

Date: 24 February 2026
Orbit: 539 x 546 km, 97.4° (Epoch: 6 March)

Event Time Altitude Azimuth Distance (km) Brightness Sun altitude
Rises 04:52:05 0° 187° (S) 2,710 ? -20.0°
Reaches altitude 10° 04:54:25 10° 198° (SSW) 1,814 ? -19.4°
Enters shadow 04:55:51 19° 214° (SSW) 1,342 ? -19.1°
